Year,Month,Day,Hour,Minute,Value (Times are PST for temperature in C)
2016,08,25,00,00,19.60
2016,08,25,00,01,19.70
2016,08,25,00,02,19.60
2016,08,25,00,03,19.60
2016,08,25,00,04,19.50
2016,08,25,00,05,19.50
2016,08,25,00,06,19.60
2016,08,25,00,07,19.60
2016,08,25,00,08,19.70
2016,08,25,00,09,19.70
2016,08,25,00,10,19.70
2016,08,25,00,11,19.70
2016,08,25,00,12,19.70
2016,08,25,00,13,19.60
2016,08,25,00,14,19.60
2016,08,25,00,15,19.60
2016,08,25,00,16,19.50
2016,08,25,00,17,19.40
2016,08,25,00,18,19.30
2016,08,25,00,19,19.30
2016,08,25,00,20,19.20
2016,08,25,00,21,19.10
2016,08,25,00,22,19.10
2016,08,25,00,23,19.00
2016,08,25,00,24,18.90
2016,08,25,00,25,18.90
2016,08,25,00,26,18.80
2016,08,25,00,27,18.70
2016,08,25,00,28,18.70
2016,08,25,00,29,18.70
2016,08,25,00,30,18.70
2016,08,25,00,31,18.70
2016,08,25,00,32,18.70
2016,08,25,00,33,18.70
2016,08,25,00,34,18.70
2016,08,25,00,35,18.80
2016,08,25,00,36,18.80
2016,08,25,00,37,18.80
2016,08,25,00,38,18.80
2016,08,25,00,39,18.80
2016,08,25,00,40,18.90
2016,08,25,00,41,18.90
2016,08,25,00,42,19.00
2016,08,25,00,43,19.00
2016,08,25,00,44,19.00
2016,08,25,00,45,19.00
2016,08,25,00,46,18.90
2016,08,25,00,47,18.90
2016,08,25,00,48,18.80
2016,08,25,00,49,18.80
2016,08,25,00,50,18.80
2016,08,25,00,51,18.70
2016,08,25,00,52,18.60
2016,08,25,00,53,18.50
2016,08,25,00,54,18.40
2016,08,25,00,55,18.40
2016,08,25,00,56,18.30
2016,08,25,00,57,18.30
2016,08,25,00,58,18.30
2016,08,25,00,59,18.20
2016,08,25,01,00,18.20
2016,08,25,01,01,18.20
2016,08,25,01,02,18.30
2016,08,25,01,03,18.30
2016,08,25,01,04,18.30
2016,08,25,01,05,18.30
2016,08,25,01,06,18.40
2016,08,25,01,07,18.40
2016,08,25,01,08,18.40
2016,08,25,01,09,18.50
2016,08,25,01,10,18.60
2016,08,25,01,11,18.70
2016,08,25,01,12,18.70
2016,08,25,01,13,18.70
2016,08,25,01,14,18.50
2016,08,25,01,15,18.40
2016,08,25,01,16,18.30
2016,08,25,01,17,18.20
2016,08,25,01,18,18.10
2016,08,25,01,19,18.10
2016,08,25,01,20,18.10
2016,08,25,01,21,18.10
2016,08,25,01,22,18.10
2016,08,25,01,23,18.10
2016,08,25,01,24,18.00
2016,08,25,01,25,18.00
2016,08,25,01,26,18.00
2016,08,25,01,27,18.10
2016,08,25,01,28,18.10
2016,08,25,01,29,18.20
2016,08,25,01,30,18.20
2016,08,25,01,31,18.10
2016,08,25,01,32,18.10
2016,08,25,01,33,18.10
2016,08,25,01,34,18.00
2016,08,25,01,35,18.00
2016,08,25,01,36,17.90
2016,08,25,01,37,17.90
2016,08,25,01,38,17.80
2016,08,25,01,39,17.80
2016,08,25,01,40,17.80
2016,08,25,01,41,17.70
2016,08,25,01,42,17.60
2016,08,25,01,43,17.50
2016,08,25,01,44,17.40
2016,08,25,01,45,17.40
2016,08,25,01,46,17.40
2016,08,25,01,47,17.40
2016,08,25,01,48,17.50
2016,08,25,01,49,17.50
2016,08,25,01,50,17.60
2016,08,25,01,51,17.60
2016,08,25,01,52,17.60
2016,08,25,01,53,17.60
2016,08,25,01,54,17.70
2016,08,25,01,55,17.70
2016,08,25,01,56,17.80
2016,08,25,01,57,17.80
2016,08,25,01,58,17.70
2016,08,25,01,59,17.60
2016,08,25,02,00,17.50
2016,08,25,02,01,17.30
2016,08,25,02,02,17.20
2016,08,25,02,03,17.10
2016,08,25,02,04,17.10
2016,08,25,02,05,17.10
2016,08,25,02,06,17.00
2016,08,25,02,07,17.00
2016,08,25,02,08,17.00
2016,08,25,02,09,17.00
2016,08,25,02,10,17.10
2016,08,25,02,11,17.10
2016,08,25,02,12,17.20
2016,08,25,02,13,17.20
2016,08,25,02,14,17.30
2016,08,25,02,15,17.40
2016,08,25,02,16,17.50
2016,08,25,02,17,17.50
2016,08,25,02,18,17.50
2016,08,25,02,19,17.60
2016,08,25,02,20,17.60
2016,08,25,02,21,17.60
2016,08,25,02,22,17.60
2016,08,25,02,23,17.50
2016,08,25,02,24,17.50
2016,08,25,02,25,17.50
2016,08,25,02,26,17.50
2016,08,25,02,27,17.50
2016,08,25,02,28,17.50
2016,08,25,02,29,17.50
2016,08,25,02,30,17.40
2016,08,25,02,31,17.30
2016,08,25,02,32,17.30
2016,08,25,02,33,17.30
2016,08,25,02,34,17.30
2016,08,25,02,35,17.30
2016,08,25,02,36,17.30
2016,08,25,02,37,17.30
2016,08,25,02,38,17.40
2016,08,25,02,39,17.40
2016,08,25,02,40,17.40
2016,08,25,02,41,17.40
2016,08,25,02,42,17.40
2016,08,25,02,43,17.40
2016,08,25,02,44,17.30
2016,08,25,02,45,17.30
2016,08,25,02,46,17.30
2016,08,25,02,47,17.20
2016,08,25,02,48,17.20
2016,08,25,02,49,17.20
2016,08,25,02,50,17.10
2016,08,25,02,51,17.10
2016,08,25,02,52,17.10
2016,08,25,02,53,17.20
2016,08,25,02,54,17.20
2016,08,25,02,55,17.20
2016,08,25,02,56,17.10
2016,08,25,02,57,17.10
2016,08,25,02,58,17.00
2016,08,25,02,59,16.90
2016,08,25,03,00,16.80
2016,08,25,03,01,16.70
2016,08,25,03,02,16.60
2016,08,25,03,03,16.50
2016,08,25,03,04,16.40
2016,08,25,03,05,16.40
2016,08,25,03,06,16.40
2016,08,25,03,07,16.40
2016,08,25,03,08,16.40
2016,08,25,03,09,16.40
2016,08,25,03,10,16.40
2016,08,25,03,11,16.40
2016,08,25,03,12,16.40
2016,08,25,03,13,16.40
2016,08,25,03,14,16.40
2016,08,25,03,15,16.50
2016,08,25,03,16,16.50
2016,08,25,03,17,16.60
2016,08,25,03,18,16.60
2016,08,25,03,19,16.60
2016,08,25,03,20,16.60
2016,08,25,03,21,16.60
2016,08,25,03,22,16.50
2016,08,25,03,23,16.50
2016,08,25,03,24,16.50
2016,08,25,03,25,16.50
2016,08,25,03,26,16.50
2016,08,25,03,27,16.50
2016,08,25,03,28,16.50
2016,08,25,03,29,16.50
2016,08,25,03,30,16.40
2016,08,25,03,31,16.40
2016,08,25,03,32,16.40
2016,08,25,03,33,16.40
2016,08,25,03,34,16.40
2016,08,25,03,35,16.40
2016,08,25,03,36,16.30
2016,08,25,03,37,16.30
2016,08,25,03,38,16.30
2016,08,25,03,39,16.30
2016,08,25,03,40,16.30
2016,08,25,03,41,16.30
2016,08,25,03,42,16.30
2016,08,25,03,43,16.30
2016,08,25,03,44,16.30
2016,08,25,03,45,16.30
2016,08,25,03,46,16.20
2016,08,25,03,47,16.10
2016,08,25,03,48,16.10
2016,08,25,03,49,16.00
2016,08,25,03,50,15.90
2016,08,25,03,51,15.90
2016,08,25,03,52,15.80
2016,08,25,03,53,15.90
2016,08,25,03,54,15.90
2016,08,25,03,55,15.90
2016,08,25,03,56,16.00
2016,08,25,03,57,16.00
2016,08,25,03,58,16.10
2016,08,25,03,59,16.20
2016,08,25,04,00,16.30
2016,08,25,04,01,16.30
2016,08,25,04,02,16.40
2016,08,25,04,03,16.40
2016,08,25,04,04,16.50
2016,08,25,04,05,16.50
2016,08,25,04,06,16.50
2016,08,25,04,07,16.60
2016,08,25,04,08,16.60
2016,08,25,04,09,16.50
2016,08,25,04,10,16.50
2016,08,25,04,11,16.40
2016,08,25,04,12,16.40
2016,08,25,04,13,16.40
2016,08,25,04,14,16.30
2016,08,25,04,15,16.30
2016,08,25,04,16,16.30
2016,08,25,04,17,16.20
2016,08,25,04,18,16.10
2016,08,25,04,19,16.00
2016,08,25,04,20,16.00
2016,08,25,04,21,15.90
2016,08,25,04,22,15.80
2016,08,25,04,23,15.70
2016,08,25,04,24,15.70
2016,08,25,04,25,15.70
2016,08,25,04,26,15.70
2016,08,25,04,27,15.70
2016,08,25,04,28,15.60
2016,08,25,04,29,15.60
2016,08,25,04,30,15.60
2016,08,25,04,31,15.60
2016,08,25,04,32,15.70
2016,08,25,04,33,15.70
2016,08,25,04,34,15.70
2016,08,25,04,35,15.70
2016,08,25,04,36,15.70
2016,08,25,04,37,15.70
2016,08,25,04,38,15.80
2016,08,25,04,39,15.80
2016,08,25,04,40,15.80
2016,08,25,04,41,15.80
2016,08,25,04,42,15.80
2016,08,25,04,43,15.80
2016,08,25,04,44,15.70
2016,08,25,04,45,15.70
2016,08,25,04,46,15.70
2016,08,25,04,47,15.60
2016,08,25,04,48,15.60
2016,08,25,04,49,15.60
2016,08,25,04,50,15.60
2016,08,25,04,51,15.50
2016,08,25,04,52,15.50
2016,08,25,04,53,15.50
2016,08,25,04,54,15.50
2016,08,25,04,55,15.50
2016,08,25,04,56,15.60
2016,08,25,04,57,15.60
2016,08,25,04,58,15.60
2016,08,25,04,59,15.70
2016,08,25,05,00,15.70
2016,08,25,05,01,15.70
2016,08,25,05,02,15.80
2016,08,25,05,03,15.80
2016,08,25,05,04,15.90
2016,08,25,05,05,15.90
2016,08,25,05,06,15.90
2016,08,25,05,07,15.90
2016,08,25,05,08,15.90
2016,08,25,05,09,15.90
2016,08,25,05,10,15.90
2016,08,25,05,11,15.90
2016,08,25,05,12,15.90
2016,08,25,05,13,16.00
2016,08,25,05,14,16.00
2016,08,25,05,15,16.10
2016,08,25,05,16,16.10
2016,08,25,05,17,16.10
2016,08,25,05,18,16.10
2016,08,25,05,19,16.10
2016,08,25,05,20,16.00
2016,08,25,05,21,16.00
2016,08,25,05,22,15.90
2016,08,25,05,23,15.90
2016,08,25,05,24,15.80
2016,08,25,05,25,15.80
2016,08,25,05,26,15.70
2016,08,25,05,27,15.70
2016,08,25,05,28,15.80
2016,08,25,05,29,15.80
2016,08,25,05,30,15.80
2016,08,25,05,31,15.80
2016,08,25,05,32,15.90
2016,08,25,05,33,15.90
2016,08,25,05,34,15.90
2016,08,25,05,35,16.00
2016,08,25,05,36,16.00
2016,08,25,05,37,16.00
2016,08,25,05,38,16.10
2016,08,25,05,39,16.10
2016,08,25,05,40,16.10
2016,08,25,05,41,16.10
2016,08,25,05,42,16.10
2016,08,25,05,43,16.10
2016,08,25,05,44,16.10
2016,08,25,05,45,16.10
2016,08,25,05,46,16.10
2016,08,25,05,47,16.10
2016,08,25,05,48,16.10
2016,08,25,05,49,16.10
2016,08,25,05,50,16.10
2016,08,25,05,51,16.10
2016,08,25,05,52,16.10
2016,08,25,05,53,16.10
2016,08,25,05,54,16.10
2016,08,25,05,55,16.00
2016,08,25,05,56,16.00
2016,08,25,05,57,16.00
2016,08,25,05,58,15.90
2016,08,25,05,59,16.00
2016,08,25,06,00,16.00
2016,08,25,06,01,16.00
2016,08,25,06,02,16.00
2016,08,25,06,03,16.10
2016,08,25,06,04,16.10
2016,08,25,06,05,16.20
2016,08,25,06,06,16.20
2016,08,25,06,07,16.10
2016,08,25,06,08,16.10
2016,08,25,06,09,16.10
2016,08,25,06,10,16.10
2016,08,25,06,11,16.00
2016,08,25,06,12,16.00
2016,08,25,06,13,15.90
2016,08,25,06,14,15.90
2016,08,25,06,15,15.90
2016,08,25,06,16,15.80
2016,08,25,06,17,15.80
2016,08,25,06,18,15.70
2016,08,25,06,19,15.70
2016,08,25,06,20,15.70
2016,08,25,06,21,15.60
2016,08,25,06,22,15.60
2016,08,25,06,23,15.60
2016,08,25,06,24,15.50
2016,08,25,06,25,15.50
2016,08,25,06,26,15.50
2016,08,25,06,27,15.40
2016,08,25,06,28,15.30
2016,08,25,06,29,15.30
2016,08,25,06,30,15.20
2016,08,25,06,31,15.20
2016,08,25,06,32,15.10
2016,08,25,06,33,15.00
2016,08,25,06,34,14.90
2016,08,25,06,35,14.90
2016,08,25,06,36,14.90
2016,08,25,06,37,14.90
2016,08,25,06,38,14.90
2016,08,25,06,39,15.00
2016,08,25,06,40,15.00
2016,08,25,06,41,15.10
2016,08,25,06,42,15.10
2016,08,25,06,43,15.10
2016,08,25,06,44,15.10
2016,08,25,06,45,15.10
2016,08,25,06,46,15.10
2016,08,25,06,47,15.10
2016,08,25,06,48,15.20
2016,08,25,06,49,15.20
2016,08,25,06,50,15.30
2016,08,25,06,51,15.30
2016,08,25,06,52,15.30
2016,08,25,06,53,15.40
2016,08,25,06,54,15.40
2016,08,25,06,55,15.50
2016,08,25,06,56,15.60
2016,08,25,06,57,15.70
2016,08,25,06,58,15.70
2016,08,25,06,59,15.80
2016,08,25,07,00,15.80
2016,08,25,07,01,15.90
2016,08,25,07,02,15.90
2016,08,25,07,03,15.90
2016,08,25,07,04,16.00
2016,08,25,07,05,16.00
2016,08,25,07,06,16.00
2016,08,25,07,07,16.00
2016,08,25,07,08,16.00
2016,08,25,07,09,16.00
2016,08,25,07,10,16.00
2016,08,25,07,11,16.10
2016,08,25,07,12,16.10
2016,08,25,07,13,16.10
2016,08,25,07,14,16.10
2016,08,25,07,15,16.10
2016,08,25,07,16,16.10
2016,08,25,07,17,16.20
2016,08,25,07,18,16.20
2016,08,25,07,19,16.10
2016,08,25,07,20,16.10
2016,08,25,07,21,16.10
2016,08,25,07,22,16.10
2016,08,25,07,23,16.10
2016,08,25,07,24,16.10
2016,08,25,07,25,16.10
2016,08,25,07,26,16.20
2016,08,25,07,27,16.20
2016,08,25,07,28,16.30
2016,08,25,07,29,16.40
2016,08,25,07,30,16.40
2016,08,25,07,31,16.50
2016,08,25,07,32,16.60
2016,08,25,07,33,16.60
2016,08,25,07,34,16.70
2016,08,25,07,35,16.80
2016,08,25,07,36,16.80
2016,08,25,07,37,16.90
2016,08,25,07,38,17.00
2016,08,25,07,39,17.00
2016,08,25,07,40,17.10
2016,08,25,07,41,17.20
2016,08,25,07,42,17.20
2016,08,25,07,43,17.30
2016,08,25,07,44,17.40
2016,08,25,07,45,17.40
2016,08,25,07,46,17.50
2016,08,25,07,47,17.50
2016,08,25,07,48,17.60
2016,08,25,07,49,17.60
2016,08,25,07,50,17.60
2016,08,25,07,51,17.60
2016,08,25,07,52,17.70
2016,08,25,07,53,17.70
2016,08,25,07,54,17.70
2016,08,25,07,55,17.80
2016,08,25,07,56,17.90
2016,08,25,07,57,18.00
2016,08,25,07,58,18.10
2016,08,25,07,59,18.20
2016,08,25,08,00,18.30
2016,08,25,08,01,18.40
2016,08,25,08,02,18.50
2016,08,25,08,03,18.50
2016,08,25,08,04,18.60
2016,08,25,08,05,18.60
2016,08,25,08,06,18.70
2016,08,25,08,07,18.80
2016,08,25,08,08,18.90
2016,08,25,08,09,18.90
2016,08,25,08,10,19.00
2016,08,25,08,11,19.10
2016,08,25,08,12,19.10
2016,08,25,08,13,19.20
2016,08,25,08,14,19.20
2016,08,25,08,15,19.20
2016,08,25,08,16,19.30
2016,08,25,08,17,19.30
2016,08,25,08,18,19.40
2016,08,25,08,19,19.60
2016,08,25,08,20,19.70
2016,08,25,08,21,19.80
2016,08,25,08,22,19.90
2016,08,25,08,23,20.00
2016,08,25,08,24,20.20
2016,08,25,08,25,20.20
2016,08,25,08,26,20.30
2016,08,25,08,27,20.40
2016,08,25,08,28,20.50
2016,08,25,08,29,20.50
2016,08,25,08,30,20.60
2016,08,25,08,31,20.70
2016,08,25,08,32,20.80
2016,08,25,08,33,20.80
2016,08,25,08,34,20.90
2016,08,25,08,35,20.90
2016,08,25,08,36,21.00
2016,08,25,08,37,21.10
2016,08,25,08,38,21.10
2016,08,25,08,39,21.20
2016,08,25,08,40,21.20
2016,08,25,08,41,21.30
2016,08,25,08,42,21.30
2016,08,25,08,43,21.30
2016,08,25,08,44,21.40
2016,08,25,08,45,21.40
2016,08,25,08,46,21.50
2016,08,25,08,47,21.50
2016,08,25,08,48,21.60
2016,08,25,08,49,21.60
2016,08,25,08,50,21.70
2016,08,25,08,51,21.70
2016,08,25,08,52,21.80
2016,08,25,08,53,21.80
2016,08,25,08,54,21.90
2016,08,25,08,55,21.90
2016,08,25,08,56,22.00
2016,08,25,08,57,22.00
2016,08,25,08,58,22.10
2016,08,25,08,59,22.10
2016,08,25,09,00,22.20
2016,08,25,09,01,22.20
2016,08,25,09,02,22.20
2016,08,25,09,03,22.30
2016,08,25,09,04,22.30
2016,08,25,09,05,22.40
2016,08,25,09,06,22.50
2016,08,25,09,07,22.60
2016,08,25,09,08,22.70
2016,08,25,09,09,22.80
2016,08,25,09,10,22.80
2016,08,25,09,11,22.90
2016,08,25,09,12,22.90
2016,08,25,09,13,22.90
2016,08,25,09,14,23.00
2016,08,25,09,15,23.00
2016,08,25,09,16,23.00
2016,08,25,09,17,23.10
2016,08,25,09,18,23.10
2016,08,25,09,19,23.10
2016,08,25,09,20,23.10
2016,08,25,09,21,23.10
2016,08,25,09,22,23.10
2016,08,25,09,23,23.10
2016,08,25,09,24,23.10
2016,08,25,09,25,23.10
2016,08,25,09,26,23.10
2016,08,25,09,27,23.00
2016,08,25,09,28,23.00
2016,08,25,09,29,23.00
2016,08,25,09,30,22.90
2016,08,25,09,31,22.90
2016,08,25,09,32,22.90
2016,08,25,09,33,22.90
2016,08,25,09,34,22.90
2016,08,25,09,35,22.80
2016,08,25,09,36,22.90
2016,08,25,09,37,22.90
2016,08,25,09,38,22.90
2016,08,25,09,39,22.90
2016,08,25,09,40,22.90
2016,08,25,09,41,22.90
2016,08,25,09,42,23.00
2016,08,25,09,43,23.00
2016,08,25,09,44,23.10
2016,08,25,09,45,23.10
2016,08,25,09,46,23.20
2016,08,25,09,47,23.30
2016,08,25,09,48,23.30
2016,08,25,09,49,23.30
2016,08,25,09,50,23.40
2016,08,25,09,51,23.40
2016,08,25,09,52,23.50
2016,08,25,09,53,23.50
2016,08,25,09,54,23.60
2016,08,25,09,55,23.60
2016,08,25,09,56,23.70
2016,08,25,09,57,23.80
2016,08,25,09,58,23.80
2016,08,25,09,59,23.90
2016,08,25,10,00,24.00
2016,08,25,10,01,24.00
2016,08,25,10,02,24.10
2016,08,25,10,03,24.10
2016,08,25,10,04,24.20
2016,08,25,10,05,24.20
2016,08,25,10,06,24.30
2016,08,25,10,07,24.30
2016,08,25,10,08,24.40
2016,08,25,10,09,24.50
2016,08,25,10,10,24.50
2016,08,25,10,11,24.60
2016,08,25,10,12,24.70
2016,08,25,10,13,24.80
2016,08,25,10,14,24.90
2016,08,25,10,15,25.00
2016,08,25,10,16,25.10
2016,08,25,10,17,25.30
2016,08,25,10,18,25.40
2016,08,25,10,19,25.50
2016,08,25,10,20,25.60
2016,08,25,10,21,25.70
2016,08,25,10,22,25.80
2016,08,25,10,23,25.90
2016,08,25,10,24,25.90
2016,08,25,10,25,26.00
2016,08,25,10,26,26.00
2016,08,25,10,27,26.00
2016,08,25,10,28,26.00
2016,08,25,10,29,26.00
2016,08,25,10,30,26.00
2016,08,25,10,31,26.10
2016,08,25,10,32,26.10
2016,08,25,10,33,26.20
2016,08,25,10,34,26.30
2016,08,25,10,35,26.30
2016,08,25,10,36,26.40
2016,08,25,10,37,26.40
2016,08,25,10,38,26.50
2016,08,25,10,39,26.60
2016,08,25,10,40,26.60
2016,08,25,10,41,26.60
2016,08,25,10,42,26.70
2016,08,25,10,43,26.70
2016,08,25,10,44,26.80
2016,08,25,10,45,26.80
2016,08,25,10,46,26.90
2016,08,25,10,47,27.00
2016,08,25,10,48,27.10
2016,08,25,10,49,27.20
2016,08,25,10,50,27.10
2016,08,25,10,51,27.10
2016,08,25,10,52,27.10
2016,08,25,10,53,27.00
2016,08,25,10,54,27.10
2016,08,25,10,55,27.10
2016,08,25,10,56,27.10
2016,08,25,10,57,27.10
2016,08,25,10,58,27.10
2016,08,25,10,59,27.10
2016,08,25,11,00,27.00
2016,08,25,11,01,27.00
2016,08,25,11,02,26.90
2016,08,25,11,03,26.90
2016,08,25,11,04,27.00
2016,08,25,11,05,27.00
2016,08,25,11,06,27.10
2016,08,25,11,07,27.10
2016,08,25,11,08,27.10
2016,08,25,11,09,27.10
2016,08,25,11,10,27.10
2016,08,25,11,11,27.10
2016,08,25,11,12,27.20
2016,08,25,11,13,27.20
2016,08,25,11,14,27.20
2016,08,25,11,15,27.20
2016,08,25,11,16,27.30
2016,08,25,11,17,27.30
2016,08,25,11,18,27.30
2016,08,25,11,19,27.20
2016,08,25,11,20,27.30
2016,08,25,11,21,27.30
2016,08,25,11,22,27.30
2016,08,25,11,23,27.30
2016,08,25,11,24,27.30
2016,08,25,11,25,27.30
2016,08,25,11,26,27.40
2016,08,25,11,27,27.40
2016,08,25,11,28,27.40
2016,08,25,11,29,27.40
2016,08,25,11,30,27.40
2016,08,25,11,31,27.30
2016,08,25,11,32,27.40
2016,08,25,11,33,27.40
2016,08,25,11,34,27.40
2016,08,25,11,35,27.50
2016,08,25,11,36,27.50
2016,08,25,11,37,27.60
2016,08,25,11,38,27.60
2016,08,25,11,39,27.60
2016,08,25,11,40,27.60
2016,08,25,11,41,27.60
2016,08,25,11,42,27.50
2016,08,25,11,43,27.50
2016,08,25,11,44,27.50
2016,08,25,11,45,27.60
2016,08,25,11,46,27.60
2016,08,25,11,47,27.70
2016,08,25,11,48,27.70
2016,08,25,11,49,27.80
2016,08,25,11,50,27.80
2016,08,25,11,51,27.80
2016,08,25,11,52,27.70
2016,08,25,11,53,27.60
2016,08,25,11,54,27.60
2016,08,25,11,55,27.50
2016,08,25,11,56,27.50
2016,08,25,11,57,27.50
2016,08,25,11,58,27.50
2016,08,25,11,59,27.60
2016,08,25,12,00,27.60
2016,08,25,12,01,27.60
2016,08,25,12,02,27.60
2016,08,25,12,03,27.70
2016,08,25,12,04,27.80
2016,08,25,12,05,27.90
2016,08,25,12,06,27.90
2016,08,25,12,07,28.00
2016,08,25,12,08,28.00
2016,08,25,12,09,28.00
2016,08,25,12,10,28.00
2016,08,25,12,11,28.00
2016,08,25,12,12,28.00
2016,08,25,12,13,28.10
2016,08,25,12,14,28.10
2016,08,25,12,15,28.20
2016,08,25,12,16,28.20
2016,08,25,12,17,28.30
2016,08,25,12,18,28.30
2016,08,25,12,19,28.30
2016,08,25,12,20,28.30
2016,08,25,12,21,28.20
2016,08,25,12,22,28.30
2016,08,25,12,23,28.30
2016,08,25,12,24,28.30
2016,08,25,12,25,28.40
2016,08,25,12,26,28.40
2016,08,25,12,27,28.50
2016,08,25,12,28,28.60
2016,08,25,12,29,28.60
2016,08,25,12,30,28.60
2016,08,25,12,31,28.60
2016,08,25,12,32,28.60
2016,08,25,12,33,28.50
2016,08,25,12,34,28.50
2016,08,25,12,35,28.60
2016,08,25,12,36,28.60
2016,08,25,12,37,28.70
2016,08,25,12,38,28.80
2016,08,25,12,39,28.90
2016,08,25,12,40,29.00
2016,08,25,12,41,29.10
2016,08,25,12,42,29.20
2016,08,25,12,43,29.20
2016,08,25,12,44,29.30
2016,08,25,12,45,29.30
2016,08,25,12,46,29.40
2016,08,25,12,47,29.40
2016,08,25,12,48,29.40
2016,08,25,12,49,29.40
2016,08,25,12,50,29.40
2016,08,25,12,51,29.50
2016,08,25,12,52,29.50
2016,08,25,12,53,29.60
2016,08,25,12,54,29.60
2016,08,25,12,55,29.70
2016,08,25,12,56,29.70
2016,08,25,12,57,29.80
2016,08,25,12,58,29.80
2016,08,25,12,59,29.80
2016,08,25,13,00,29.80
2016,08,25,13,01,29.80
2016,08,25,13,02,29.80
2016,08,25,13,03,29.70
2016,08,25,13,04,29.70
2016,08,25,13,05,29.70
2016,08,25,13,06,29.70
2016,08,25,13,07,29.70
2016,08,25,13,08,29.70
2016,08,25,13,09,29.70
2016,08,25,13,10,29.70
2016,08,25,13,11,29.70
2016,08,25,13,12,29.70
2016,08,25,13,13,29.70
2016,08,25,13,14,29.80
2016,08,25,13,15,29.80
2016,08,25,13,16,29.90
2016,08,25,13,17,29.90
2016,08,25,13,18,30.00
2016,08,25,13,19,30.00
2016,08,25,13,20,30.00
2016,08,25,13,21,30.00
2016,08,25,13,22,30.10
2016,08,25,13,23,30.10
2016,08,25,13,24,30.20
2016,08,25,13,25,30.20
2016,08,25,13,26,30.20
2016,08,25,13,27,30.20
2016,08,25,13,28,30.30
2016,08,25,13,29,30.30
2016,08,25,13,30,30.30
2016,08,25,13,31,30.20
2016,08,25,13,32,30.20
2016,08,25,13,33,30.20
2016,08,25,13,34,30.10
2016,08,25,13,35,30.20
2016,08,25,13,36,30.20
2016,08,25,13,37,30.20
2016,08,25,13,38,30.20
2016,08,25,13,39,30.20
2016,08,25,13,40,30.20
2016,08,25,13,41,30.30
2016,08,25,13,42,30.30
2016,08,25,13,43,30.40
2016,08,25,13,44,30.50
2016,08,25,13,45,30.60
2016,08,25,13,46,30.60
2016,08,25,13,47,30.70
2016,08,25,13,48,30.70
2016,08,25,13,49,30.80
2016,08,25,13,50,30.80
2016,08,25,13,51,30.90
2016,08,25,13,52,30.90
2016,08,25,13,53,31.00
2016,08,25,13,54,31.00
2016,08,25,13,55,31.00
2016,08,25,13,56,31.00
2016,08,25,13,57,31.00
2016,08,25,13,58,31.10
2016,08,25,13,59,31.20
2016,08,25,14,00,31.30
2016,08,25,14,01,31.30
2016,08,25,14,02,31.40
2016,08,25,14,03,31.40
2016,08,25,14,04,31.30
2016,08,25,14,05,31.20
2016,08,25,14,06,31.10
2016,08,25,14,07,31.10
2016,08,25,14,08,31.10
2016,08,25,14,09,31.00
2016,08,25,14,10,31.00
2016,08,25,14,11,31.10
2016,08,25,14,12,31.10
2016,08,25,14,13,31.10
2016,08,25,14,14,31.20
2016,08,25,14,15,31.20
2016,08,25,14,16,31.30
2016,08,25,14,17,31.30
2016,08,25,14,18,31.40
2016,08,25,14,19,31.40
2016,08,25,14,20,31.40
2016,08,25,14,21,31.40
2016,08,25,14,22,31.40
2016,08,25,14,23,31.40
2016,08,25,14,24,31.40
2016,08,25,14,25,31.40
2016,08,25,14,26,31.40
2016,08,25,14,27,31.50
2016,08,25,14,28,31.50
2016,08,25,14,29,31.60
2016,08,25,14,30,31.60
2016,08,25,14,31,31.60
2016,08,25,14,32,31.70
2016,08,25,14,33,31.70
2016,08,25,14,34,31.70
2016,08,25,14,35,31.70
2016,08,25,14,36,31.80
2016,08,25,14,37,31.80
2016,08,25,14,38,31.80
2016,08,25,14,39,31.80
2016,08,25,14,40,31.80
2016,08,25,14,41,31.80
2016,08,25,14,42,31.80
2016,08,25,14,43,31.90
2016,08,25,14,44,31.90
2016,08,25,14,45,32.00
2016,08,25,14,46,32.00
2016,08,25,14,47,32.00
2016,08,25,14,48,32.10
2016,08,25,14,49,32.10
2016,08,25,14,50,32.10
2016,08,25,14,51,32.00
2016,08,25,14,52,32.00
2016,08,25,14,53,31.90
2016,08,25,14,54,31.90
2016,08,25,14,55,31.90
2016,08,25,14,56,31.90
2016,08,25,14,57,31.90
2016,08,25,14,58,31.90
2016,08,25,14,59,31.90
2016,08,25,15,00,31.90
2016,08,25,15,01,31.90
2016,08,25,15,02,32.00
2016,08,25,15,03,32.00
2016,08,25,15,04,32.10
2016,08,25,15,05,32.10
2016,08,25,15,06,32.10
2016,08,25,15,07,32.10
2016,08,25,15,08,32.10
2016,08,25,15,09,32.20
2016,08,25,15,10,32.20
2016,08,25,15,11,32.20
2016,08,25,15,12,32.20
2016,08,25,15,13,32.30
2016,08,25,15,14,32.30
2016,08,25,15,15,32.40
2016,08,25,15,16,32.40
2016,08,25,15,17,32.40
2016,08,25,15,18,32.40
2016,08,25,15,19,32.40
2016,08,25,15,20,32.50
2016,08,25,15,21,32.50
2016,08,25,15,22,32.50
2016,08,25,15,23,32.50
2016,08,25,15,24,32.50
2016,08,25,15,25,32.40
2016,08,25,15,26,32.40
2016,08,25,15,27,32.40
2016,08,25,15,28,32.40
2016,08,25,15,29,32.30
2016,08,25,15,30,32.30
2016,08,25,15,31,32.30
2016,08,25,15,32,32.30
2016,08,25,15,33,32.30
2016,08,25,15,34,32.30
2016,08,25,15,35,32.30
2016,08,25,15,36,32.30
2016,08,25,15,37,32.20
2016,08,25,15,38,32.20
2016,08,25,15,39,32.20
2016,08,25,15,40,32.30
2016,08,25,15,41,32.20
2016,08,25,15,42,32.30
2016,08,25,15,43,32.30
2016,08,25,15,44,32.30
2016,08,25,15,45,32.30
2016,08,25,15,46,32.30
2016,08,25,15,47,32.30
2016,08,25,15,48,32.30
2016,08,25,15,49,32.30
2016,08,25,15,50,32.30
2016,08,25,15,51,32.30
2016,08,25,15,52,32.30
2016,08,25,15,53,32.20
2016,08,25,15,54,32.10
2016,08,25,15,55,32.10
2016,08,25,15,56,32.00
2016,08,25,15,57,31.90
2016,08,25,15,58,31.90
2016,08,25,15,59,31.90
2016,08,25,16,00,32.00
2016,08,25,16,01,32.00
2016,08,25,16,02,32.00
2016,08,25,16,03,32.00
2016,08,25,16,04,32.10
2016,08,25,16,05,32.10
2016,08,25,16,06,32.10
2016,08,25,16,07,32.10
2016,08,25,16,08,32.10
2016,08,25,16,09,32.20
2016,08,25,16,10,32.20
2016,08,25,16,11,32.20
2016,08,25,16,12,32.30
2016,08,25,16,13,32.30
2016,08,25,16,14,32.40
2016,08,25,16,15,32.30
2016,08,25,16,16,32.30
2016,08,25,16,17,32.30
2016,08,25,16,18,32.20
2016,08,25,16,19,32.20
2016,08,25,16,20,32.20
2016,08,25,16,21,32.10
2016,08,25,16,22,32.10
2016,08,25,16,23,32.10
2016,08,25,16,24,32.10
2016,08,25,16,25,32.10
2016,08,25,16,26,32.10
2016,08,25,16,27,32.00
2016,08,25,16,28,32.00
2016,08,25,16,29,32.00
2016,08,25,16,30,32.00
2016,08,25,16,31,32.10
2016,08,25,16,32,32.10
2016,08,25,16,33,32.20
2016,08,25,16,34,32.30
2016,08,25,16,35,32.30
2016,08,25,16,36,32.30
2016,08,25,16,37,32.30
2016,08,25,16,38,32.40
2016,08,25,16,39,32.40
2016,08,25,16,40,32.40
2016,08,25,16,41,32.40
2016,08,25,16,42,32.40
2016,08,25,16,43,32.50
2016,08,25,16,44,32.50
2016,08,25,16,45,32.60
2016,08,25,16,46,32.60
2016,08,25,16,47,32.60
2016,08,25,16,48,32.60
2016,08,25,16,49,32.60
2016,08,25,16,50,32.70
2016,08,25,16,51,32.70
2016,08,25,16,52,32.70
2016,08,25,16,53,32.70
2016,08,25,16,54,32.70
2016,08,25,16,55,32.70
2016,08,25,16,56,32.70
2016,08,25,16,57,32.70
2016,08,25,16,58,32.80
2016,08,25,16,59,32.80
2016,08,25,17,00,32.80
2016,08,25,17,01,32.80
2016,08,25,17,02,32.80
2016,08,25,17,03,32.80
2016,08,25,17,04,32.80
2016,08,25,17,05,32.80
2016,08,25,17,06,32.80
2016,08,25,17,07,32.70
2016,08,25,17,08,32.70
2016,08,25,17,09,32.70
2016,08,25,17,10,32.70
2016,08,25,17,11,32.70
2016,08,25,17,12,32.70
2016,08,25,17,13,32.70
2016,08,25,17,14,32.70
2016,08,25,17,15,32.70
2016,08,25,17,16,32.70
2016,08,25,17,17,32.70
2016,08,25,17,18,32.70
2016,08,25,17,19,32.70